Location: Leintwardine
(52.3667°N, 2.8667°W)
Time: 09:26:35
(UTC+00:00)

Daily predictions for brighter satellites

Satellite Brightness Start Highest point End
(mag) Time Altitude Azimuth Time Altitude Azimuth Time Altitude Azimuth
Cosmos 1933 3.4 16:30:34 10° S 16:34:37 86° W 16:38:39 10° N
METEOR-M 4.3 16:32:36 10° SSE 16:37:57 81° WSW 16:43:20 10° NNW
RESURS DK-1 4.3 16:36:22 10° SE 16:38:24 13° ESE 16:40:27 10° ENE
ATLAS 3B R/B 2.9 16:32:11 10° NW 16:38:53 81° SW 16:45:45 10° SE
ISS -3.5 16:35:38 10° W 16:38:59 72° S 16:42:20 10° ESE
CZ-4C R/B 4.4 16:36:48 10° N 16:39:43 32° WNW 16:42:35 10° SW
Radarsat Rocket 4.0 16:34:11 10° SSE 16:40:21 79° ENE 16:46:11 10° NNW
Cosmos 2237 Rocket 4.0 16:39:29 10° ESE 16:41:02 11° E 16:42:36 10° ENE
NOSS 3-4 (A) 4.0 16:36:04 10° SSW 16:41:44 44° ESE 16:47:46 10° NE
NOSS 3-4 (C) 4.0 16:36:11 10° SSW 16:41:51 44° ESE 16:47:52 10° NE
USA 267 3.8 16:35:47 10° SE 16:42:18 66° SW 16:48:50 10° WNW
Meteor 1-14 Rocket 4.4 16:37:49 10° NNW 16:43:50 81° ENE 16:49:41 10° SSE
Cosmos 2322 Rocket 2.5 16:38:26 10° SW 16:44:02 71° WNW 16:49:43 10° NNE
CZ-4B R/B 1.6 16:41:39 10° NNE 16:45:11 83° WNW 16:48:41 10° SSW
Cosmos 44 Rocket 4.3 16:40:49 10° NW 16:45:23 50° SW 16:49:56 10° SSE
Cosmos 1844 3.9 16:40:07 10° NNW 16:45:52 81° WSW 16:51:30 10° SSE
Cosmos 1812 4.5 16:44:46 10° ESE 16:46:51 14° E 16:48:56 10° NE
NOSS 8 (H) 4.3 16:43:49 10° SW 16:46:54 76° NW 16:50:10 10° NE
H-2A R/B 3.9 16:44:53 10° N 16:48:21 26° WNW 16:51:47 10° WSW
SL-16 R/B 2.7 16:44:30 10° SW 16:50:05 58° NW 16:55:44 10° NNE
YAOGAN 1 4.3 16:48:27 10° E 16:50:30 13° NE 16:52:34 10° NNE
Meteor 1-26 Rocket 4.3 16:44:47 10° S 16:50:36 76° E 16:56:18 10° NNE
NOSS 2-2 (C) 3.5 16:50:16 10° SW 16:53:58 72° NW 16:58:25 10° NE
Feng Yun 1-1 Rocket 4.3 16:50:19 10° SE 16:55:34 55° ENE 17:00:50 10° N
Cosmos 2219 Rocket 2.9 16:52:28 10° S 16:57:29 34° ESE 17:02:32 10° NE
BREEZE-M R/B 3.9 16:50:45 10° WSW 16:57:39 52° S 17:01:11 10° E
Cosmos 1844 Rocket 3.6 16:54:54 10° NW 17:00:21 55° WSW 17:05:46 10° S
Cosmos 1733 Rocket 3.5 16:56:32 10° N 17:00:38 38° ENE 17:04:44 10° SE
CORIOLIS 4.3 16:56:08 10° SE 17:01:23 51° ENE 17:06:40 10° N
Cosmos 494 Rocket 4.0 16:57:12 10° SSW 17:02:26 70° ESE 17:07:41 10° NNE
Cosmos 1536 3.9 16:59:25 10° NNE 17:02:42 23° ENE 17:05:57 10° ESE
Tsikada Rocket 4.4 16:57:57 10° SSW 17:04:20 70° WNW 17:10:44 10° N
Cosmos 1602 3.8 17:00:39 10° NNW 17:04:32 82° W 17:08:25 10° S
PSLV R/B 4.3 17:00:33 10° NNE 17:04:35 44° E 17:08:33 10° S
Cosmos 1500 3.8 17:02:43 10° N 17:06:12 33° ENE 17:09:37 10° SE
Cosmos 1869 Rocket 4.0 17:03:15 10° NNW 17:07:39 69° W 17:12:03 10° S
Cosmos 1269 Rocket 4.1 17:02:36 10° S 17:07:51 66° ESE 17:13:08 10° NNE
Cosmos 1340 2.9 17:04:03 10° NNW 17:07:51 75° W 17:11:37 10° S
SMAP 3.1 17:03:42 10° SSE 17:08:17 61° ENE 17:12:54 10° N
Cosmos 2237 4.3 17:06:09 10° SSW 17:11:55 85° WNW 17:17:42 10° NNE
CZ-4 R/B 2.6 17:09:27 10° ESE 17:12:18 20° ENE 17:15:09 10° NNE
Cosmos 2180 Rocket 4.5 17:07:31 10° N 17:13:47 70° ENE 17:20:05 10° SSE
Cosmos 1943 Rocket 3.7 17:10:04 10° NNW 17:13:48 17° NNE 17:16:12 14° NE
ALOS 3.8 17:11:32 10° SSW 17:15:55 40° W 17:20:21 10° NNW
NOSS 2-2 (E) 4.1 17:12:45 10° WSW 17:16:28 47° NNW 17:20:30 13° NE
H-2A R/B 2.6 17:12:51 10° SSE 17:16:30 60° ENE 17:20:10 10° N
Cosmos 304 Rocket 4.0 17:13:29 10° NNW 17:18:19 78° WSW 17:23:07 10° SSE
ATLAS 2AS CENTAUR R/B 3.1 17:11:18 10° SW 17:19:20 88° SE 17:26:45 13° NE
Lacrosse 5 rocket 3.0 17:16:40 10° S 17:19:46 20° SE 17:21:46 14° E
NOSS 7 (D) 4.4 17:19:02 10° NW 17:21:47 41° NE 17:23:57 16° ESE
COSMOS 2428 3.0 17:17:28 10° S 17:22:55 51° ESE 17:27:48 13° NE
Cosmos 1302 Rocket 4.4 17:18:02 10° NNW 17:23:19 71° WSW 17:28:32 10° SSE
Meteor 1-5 Rocket 4.1 17:17:40 10° N 17:23:20 72° ENE 17:28:45 10° SSE
CSL-04 Rocket 4.4 17:19:35 10° ESE 17:24:04 29° ENE 17:28:35 10° N
YAOGAN 6 3.5 17:21:36 10° SE 17:24:37 26° ENE 17:27:40 10° N
Cosmos 292 Rocket 4.3 17:23:38 10° NNW 17:28:10 36° NE 17:32:40 10° ESE
SL-4 R/B 2.9 17:25:20 10° SW 17:28:45 34° SSE 17:31:03 18° E
IRS-1C Rocket 4.2 17:25:37 10° SSE 17:30:54 79° WSW 17:36:13 10° NNW
Okean O Rocket 3.5 17:28:13 10° SSW 17:32:10 33° W 17:36:08 10° NNW
SeaSat 1 3.7 17:31:15 19° ENE 17:32:46 21° NE 17:36:27 10° NNW
Cosmos 2251 Rocket 4.2 17:28:12 10° SSE 17:32:58 35° ESE 17:36:13 18° NE
Cosmos 921 Rocket 4.1 17:32:26 10° N 17:35:53 23° NE 17:36:26 23° ENE
ATLAS 5 CENTAUR R/B 3.2 17:35:36 10° SSE 17:35:54 11° SE 17:35:54 11° SE
Cosmos 2242 Rocket 4.4 17:33:38 10° SSE 17:37:39 31° E 17:40:14 18° NE
Cosmos 1782 3.7 17:34:19 10° SSW 17:38:12 50° WNW 17:42:07 10° N
COSMOS 2455 3.8 17:33:53 10° WSW 17:39:35 42° NW 17:44:47 12° NNE
FengYun 1-2 T 4.3 17:35:04 10° SE 17:40:22 53° ENE 17:45:43 10° N
Cosmos 1862 Rocket 3.8 17:36:17 10° SSE 17:40:28 47° E 17:44:16 12° NNE
Cosmos 1346 Rocket 4.5 17:38:14 10° NNW 17:41:53 36° W 17:45:33 10° SSW
Cosmos 2333 4.2 17:36:09 10° SSW 17:41:53 89° WNW 17:47:03 14° NNE
Cosmos 1315 Rocket 3.3 17:39:21 10° SSW 17:43:17 60° WNW 17:47:20 10° N
Genesis I 3.8 17:40:12 10° NNW 17:43:53 36° NE 17:45:01 29° ENE
Okean-O 2.5 17:40:10 10° SSE 17:44:36 77° ENE 17:49:03 10° NNW
Cosmos 2322 3.9 17:41:43 10° SW 17:47:25 74° WNW 17:52:32 13° NNE
USA 215 3.3 17:44:09 20° ENE 17:48:55 83° NNW 17:55:28 10° WSW
Meteor 2-6 Rocket 4.1 17:44:22 10° SSW 17:49:45 86° WNW 17:55:14 10° NNE
Cosmos 1666 2.9 17:47:24 10° N 17:51:01 42° ENE 17:54:36 10° SSE
Cosmos 2344 4.4 17:44:23 10° WNW 17:52:25 46° NNE 17:59:08 22° ENE
Cosmos 2278 Rocket 2.3 17:48:18 10° NNW 17:53:59 78° WSW 17:59:38 10° SSE
Envisat 2.9 17:51:14 10° SSE 17:56:19 85° ENE 18:01:27 10° NNW
Cosmos 1707 Rocket 4.1 17:52:09 10° SSW 17:56:33 59° WNW 18:01:01 10° N
STARLINK-67 2.5 17:54:16 10° WSW 17:57:01 71° SSE 17:57:14 66° ESE
Cosmos 1867 4.2 17:53:22 10° NW 17:58:29 38° NNE 18:00:20 30° ENE
Meteor 1-10 Rocket 4.3 17:55:51 10° SSW 18:01:23 80° WNW 18:07:03 10° NNE
BREEZE-M DEB (TANK) 3.5 17:58:35 10° WSW 18:02:58 33° S 18:04:16 23° SE
Cosmos 2360 Rocket 3.3 17:58:31 10° WSW 18:03:50 41° NW 18:08:43 12° NNE
Cosmos 2369 Rocket 3.2 18:04:22 10° NNW 18:09:00 25° NE 18:09:07 25° NE
Cosmos 1992 Rocket 4.2 18:03:50 10° NNW 18:09:04 73° WSW 18:14:16 10° SSE
Shenzhou-11 Module 4.5 18:09:21 10° SSW 18:10:27 12° S 18:10:38 12° S
SL-16 R/B 3.7 18:07:22 10° SSE 18:09:56 19° SE 18:09:56 19° SE
Cosmos 1980 Rocket 4.4 18:08:38 10° NW 18:11:46 15° NNW 18:14:54 10° NNE
Cosmos 1908 Rocket 3.4 18:07:25 10° N 18:11:52 76° E 18:16:15 10° SSE
Meteor 1-11 Rocket 4.4 18:06:46 10° NNW 18:12:39 62° W 18:18:31 10° S
COSMO-SKYMED 1 2.6 18:12:09 40° NE 18:13:18 53° E 18:17:33 10° S
Nadezhda 4 Rocket 4.0 18:08:00 10° S 18:14:19 86° E 18:20:42 10° N
Cosmos 2333 Rocket 2.4 18:08:45 10° SW 18:14:30 75° WNW 18:18:31 21° NNE
Cosmos 1553 Rocket 4.3 18:08:50 10° N 18:14:50 42° ENE 18:20:51 10° SE
STARLINK-46 4.1 18:12:21 10° SW 18:14:06 28° S 18:14:06 28° S
ISS -2.0 18:12:29 10° W 18:15:26 29° SSW 18:17:00 20° SSE
RESURS DK-1 2.3 18:11:41 10° SSW 18:15:49 86° WNW 18:17:10 42° NNE
NOAA 15 4.5 18:13:18 10° SSE 18:18:33 74° ENE 18:23:48 10° NNW
NOSS 3-1 (C) 4.4 18:13:47 10° NW 18:20:14 42° NNE 18:22:54 32° ENE
Cosmos 1812 3.1 18:18:20 10° SSW 18:22:10 63° WNW 18:24:35 21° N
Meteor 1-27 Rocket 3.8 18:16:28 10° SSW 18:22:13 86° WNW 18:28:08 10° NNE
Cosmos 2237 Rocket 2.2 18:18:20 10° SSW 18:23:55 60° ESE 18:25:48 40° NE
YAOGAN 1 2.4 18:21:35 10° SSE 18:25:54 78° ENE 18:30:15 10° NNW
BREEZE-M DEB (TANK) 3.7 18:22:09 10° W 18:26:21 27° SW 18:27:29 20° S
USA 229 DEB 4.3 18:20:40 10° NW 18:27:22 43° NNE 18:29:29 36° ENE
USA 229 4.3 18:20:47 10° NW 18:27:28 43° NNE 18:29:33 36° ENE
Cosmos 2322 Rocket 4.1 18:24:52 10° W 18:29:08 21° NNW 18:32:56 12° NNE
NOSS 3-1 (A) 4.4 18:26:06 10° NW 18:32:26 39° NNE 18:34:26 34° NE
NOSS 3-4 (A) 3.9 18:26:28 10° WSW 18:32:30 58° NW 18:35:44 30° NNE
NOSS 3-4 (C) 3.9 18:26:34 10° WSW 18:32:36 58° NW 18:35:50 30° NNE
SL-16 R/B 4.2 18:31:27 10° WNW 18:35:27 19° NNW 18:38:56 12° NNE
Lacrosse 4 Rocket 3.9 18:34:18 10° N 18:34:20 10° N 18:34:20 10° N
Cosmos 2026 Rocket 3.8 18:31:04 10° S 18:37:01 62° E 18:40:53 23° NNE
SKYMED 3 4.4 18:36:35 55° NNE 18:37:31 88° ESE 18:41:52 10° SSW
Cosmos 1536 4.1 18:35:30 10° NNW 18:39:18 40° W 18:43:04 10° SSW
Ariane Rocket 3.5 18:40:38 42° NNE 18:40:38 42° NNE 18:44:21 10° N
Cosmos 2219 Rocket 2.8 18:35:47 10° SW 18:41:15 52° NW 18:44:27 25° NNE
Okean 1-7 4.1 18:39:45 10° S 18:42:13 33° SSE 18:42:13 33° SSE
Cosmos 1417 Rocket 4.3 18:39:38 10° N 18:45:44 62° ENE 18:48:46 30° SE
CZ-4 R/B 2.1 18:43:14 10° S 18:47:03 51° W 18:50:51 10° NNW
Exosat Rocket 3.8 18:45:21 10° SW 18:50:30 64° WNW 18:52:16 39° N
Cosmos 1441 Rocket 4.4 18:49:12 10° NNW 18:51:38 35° NW 18:51:38 35° NW
Cosmos 1980 3.6 18:48:34 10° SSW 18:54:14 84° WNW 18:55:38 53° NNE
Cosmos 2297 3.7 18:48:38 10° NNW 18:54:24 82° WSW 18:56:47 37° SSE
Lacrosse 5 rocket 2.1 18:54:18 10° SW 18:57:26 48° SW 18:57:26 48° SW
Cosmos 1943 Rocket 2.7 18:53:26 10° NNW 18:57:45 43° NNE 18:57:45 43° NNE
Cosmos 1627 Rocket 4.3 18:53:58 10° S 19:00:06 88° WNW 19:05:05 16° N
SKYMED 2 4.1 19:00:50 50° NW 19:01:28 56° WNW 19:05:44 10° SSW
CSL-04 Rocket 4.2 18:58:58 10° S 19:04:08 56° WSW 19:09:23 10° NNW
Cosmos 1782 Rocket 4.1 19:01:47 10° NNW 19:06:04 56° W 19:06:20 55° WSW
COSMOS 2428 3.8 19:02:03 10° WSW 19:07:22 39° NW 19:09:50 26° N
SL-4 R/B 3.2 19:04:11 10° WSW 19:06:39 38° WSW 19:06:39 38° WSW
SeaSat 1 3.0 19:11:02 48° NNW 19:11:02 48° NNW 19:14:38 10° NNW
ATLAS 2AS CENTAUR R/B 3.8 19:03:32 10° W 19:11:12 45° NNW 19:14:11 33° NNE
Cosmos 921 Rocket 4.2 19:10:19 10° NNW 19:13:18 39° WNW 19:13:18 39° WNW
Cosmos 2251 Rocket 4.4 19:10:04 10° SW 19:15:09 45° WNW 19:16:44 35° NNW
NOSS 0 Rocket 4.4 19:13:41 10° SW 19:19:50 58° NW 19:21:31 44° N
H-2A R/B 4.4 19:27:37 12° N 19:27:37 12° N 19:27:57 10° N
USA 215 3.4 19:31:30 60° N 19:31:44 60° N 19:38:09 10° W
Cosmos 1867 4.4 19:37:00 10° NW 19:41:01 47° WNW 19:41:01 47° WNW
S3M 4.3 19:39:24 10° NNW 19:44:58 63° WNW 19:44:58 63° WNW
Cosmos 2360 Rocket 4.4 19:46:10 10° WNW 19:49:30 16° NNW 19:50:29 15° N
Cosmos 2369 Rocket 3.6 19:48:07 10° NNW 19:50:56 31° NNW 19:50:56 31° NNW
SL-16 R/B 3.8 19:49:23 10° SW 19:51:52 27° SW 19:51:52 27° SW
Cosmos 2333 Rocket 4.1 19:55:15 10° W 19:59:46 23° NNW 20:00:32 22° NNW
Cosmos 2344 4.2 19:59:05 10° NW 20:08:18 86° NE 20:09:11 79° ESE
Cosmos 2237 Rocket 3.6 20:03:10 10° WSW 20:07:40 33° WNW 20:07:40 33° WNW
NOSS 3-1 (C) 4.3 20:04:43 10° NW 20:10:19 60° NW 20:10:19 60° NW
USA 229 DEB 4.4 20:11:49 10° NW 20:16:56 51° NW 20:16:56 51° NW
USA 229 4.4 20:11:56 10° NW 20:17:01 51° NW 20:17:01 51° NW
Cosmos 2219 Rocket 4.4 20:22:48 10° WNW 20:26:11 18° NNW 20:26:11 18° NNW
Cosmos 1943 Rocket 4.4 20:37:28 10° NW 20:39:18 20° NW 20:39:18 20° NW
ATLAS 2AS CENTAUR R/B 4.4 20:56:45 10° WNW 21:01:37 30° NNW 21:01:37 30° NNW
